Regional Weather Roundup
Issued by NWS Sterling, VA

Home | Current Version | Previous Version | Graphics & Text | Print | Product List | Glossary On
Versions: 1 2 3 4 5 6 7 8 9 10 11 12 13 14 15 16 17 18 19 20 21 22 23 24 25 26 27 28 29 30 31 32 33 34 35 36 37 38 39 40 41 42 43 44 45 46 47 48 49 50
391
ASUS41 KLWX 250710
RWRLWX

REGIONAL WEATHER ROUNDUP
NATIONAL WEATHER SERVICE BALTIMORE MD/WASHINGTON DC
300 AM EDT THU AUG 25 2016

Note: "FAIR" indicates few or no clouds below 12,000 feet
with no significant weather and/or obstructions to visibility.
 TC=TEMPERATURE CELSIUS

 * =Non NWS site. Station does not report precipitation (e.g. rain,
    snow, etc.), thunder, or fog.

DCZ001-MDZ009-015-VAZ040>042-051-053>054-250800-
WASHINGTON METRO

CITY           SKY/WX    TMP DP  RH WIND       PRES   REMARKS
WASHINGTON NAT CLEAR     72  63  73 S10       30.14F
DULLES         PTCLDY    70  61  73 S7        30.13F
ANDREWS AFB    CLEAR     66  63  88 S8        30.14F
FT BELVOIR     PTCLDY    70  63  78 SE5       30.13F
QUANTICO       CLEAR     73  64  73 SW8       30.14F
COLLEGE PARK*  CLEAR     70  61  73 S5        30.14F
LEESBURG*      PTCLDY    70  66  88 S6        30.14F
MANASSAS*      PTCLDY    66  64  94 CALM      30.14F
GAITHERSBURG*  CLEAR     70  59  68 S3        30.18F

$$

MDZ006>007-011-014-250800-
BALTIMORE METRO

CITY           SKY/WX    TMP DP  RH WIND       PRES   REMARKS
BWI AIRPORT    PTCLDY    69  62  78 CALM      30.14F
MD SCIENCE CTR   N/A     72  62  71 MISG      30.15F
MARTIN STATE   PTCLDY    73  66  78 S5        30.15F
ANNAPOLIS      PTCLDY    74  64  71 S9        30.13F
FORT MEADE*    CLEAR     63  61  94 CALM      30.16F

$$

MDZ012-015-019>023-250800-
MARYLAND EASTERN SHORE

CITY           SKY/WX    TMP DP  RH WIND       PRES   REMARKS
OCEAN CITY     CLEAR     63  59  87 CALM      30.17F
SALISBURY      CLEAR     60  58  92 CALM      30.16F
BAY BRIDGE AP* CLEAR     75  64  69 S9        30.14F
CAMBRIDGE*     PTCLDY    63  61  94 E3        30.15S
EASTON*        PTCLDY    70  68  93 S5        30.19F

$$

MDZ017>025-250800-
SOUTHERN MARYLAND

CITY           SKY/WX    TMP DP  RH WIND       PRES   REMARKS
PATUXENT RIVER CLEAR     69  64  84 S3        30.15F
ST INIGOES     CLEAR     74  67  78 S8        30.15F
LEONARDTOWN*   CLEAR     70  64  83 SW5       30.17S

$$

MDZ003>005-250800-
NORTH CENTRAL MARYLAND

CITY           SKY/WX    TMP DP  RH WIND       PRES   REMARKS
FREDERICK*     NOT AVBL
HAGERSTOWN APT CLEAR     73  64  73 S7        30.12F

$$

MDZ501>502-250800-
WESTERN MARYLAND

CITY           SKY/WX    TMP DP  RH WIND       PRES   REMARKS
OAKLAND*       CLOUDY    64  63  94 SW8       30.20S
CUMBERLAND*    CLOUDY    68  68 100 CALM      30.15F

$$

VAZ025>031-250800-
SHENANDOAH VALLEY

CITY           SKY/WX    TMP DP  RH WIND       PRES   REMARKS
WINCHESTER*    CLEAR     72  64  78 SW3       30.13S
FRONT ROYAL*   FAIR      68  66  94 S3        30.12F
LURAY*         FAIR      72  68  88 S6        30.15S
NEW MARKET*    FAIR     N/A N/A N/A SW3       30.14F
STAUNTON*      CLOUDY    67  65  94 CALM      30.20S
WAYNESBORO*    FAIR      71  65  81 CALM      30.19S

$$

WVZ021-048>050-054>055-250800-
EASTERN WEST VIRGINIA PANHANDLE

CITY           SKY/WX    TMP DP  RH WIND       PRES   REMARKS
MARTINSBURG    CLEAR     67  65  93 CALM      30.11F
PETERSBURG*    CLOUDY    69  66  92 CALM      30.12F

$$

VAZ036>039-050-250800-
CENTRAL FOOTHILLS

CITY           SKY/WX    TMP DP  RH WIND       PRES   REMARKS
CHARLOTTESVILL PTCLDY    70  66  87 S6        30.15F
CULPEPER*      CLEAR     67  66  96 CALM      30.15F
ORANGE*          N/A     68  68 100 CALM      30.17S
GORDONSVILLE*  NOT AVBL
WARRENTON*     FAIR      68  61  77 S3        30.14F

$$

VAZ055>057-250800-
NORTH AND CENTRAL PIEDMONT

CITY           SKY/WX    TMP DP  RH WIND       PRES   REMARKS
FREDERICKSBRG* CLEAR     69  64  83 S5        30.14S
STAFFORD*      CLEAR     66  61  85 S3        30.18F

$$

NCZ024-NYZ072-PAZ021-071-VAZ022-071-250800-
OTHER REGIONAL OBSERVATIONS

CITY           SKY/WX    TMP DP  RH WIND       PRES   REMARKS
NEW YORK CITY    N/A     72  61  68 MISG        N/A
PHILADELPHIA   PTCLDY    70  62  76 SW8       30.15F
PITTSBURGH     CLOUDY    75  66  73 S7        30.05F
ROANOKE        PTCLDY    72  69  90 CALM      30.21S
RICHMOND       PTCLDY    67  64  90 S5        30.16F
RALEIGH        PTCLDY    68  63  84 CALM      30.18F

$$

ANZ530>537-250800-
MARINE OBSERVATIONS

STATION/POSITION TIME  TEMP    WIND        PRES
                       AIR SEA DIR/SP/G
                 (UTC) (F)     (DEG/KT/KT) (MB)
THOMAS PT LIGHT  0700   76 81  200/ 20/ 20 1021.8F
BALT KEY BRIDGE  0648          190/  7/  8 1020.4F
COVE POINT       0648          230/  9/ 10 1021.6F
LEWISETTA        0648      81  210/  8/  9 1020.6F
SOLOMONS ISLAND  0642      83  210/  6/  7   N/A
PINEY POINT      0648          210/  8/  9   N/A

$$





USA.gov is the U.S. government's official web portal to all federal, state and local government web resources and services.